Terminal Aerodrome Forecast
Issued by NWS

Home | Current Version | Previous Version | Text Only | Print | Product List | Glossary Off
Versions: 1 2 3 4 5 6 7 8 9 10 11 12 13 14 15 16 17 18 19 20 21 22 23 24 25 26 27 28 29

182
FTUS45 KGGW 062320
TAFGDV
TAF
KGDV 062320Z 0700/0724 28031G43KT P6SM BKN070
     FM070400 29026G37KT P6SM BKN090
     FM071600 31030G43KT P6SM SCT025 SCT050
      AMD LTD TO CLD VIS AND WIND=

USA.gov is the U.S. government's official web portal to all federal, state and local government web resources and services.